Date String (YYYY-MM-DD hh:mm:ss) UTC,Instrument flags,absolute air pressure of the measurement (hPa),sample flow rate (lpm),inlet stack bypass flow (lpm),air temperature of the measurement (°C),ambient temperature measured by the external sensor (°C),aerosol sample conditioner tube jacket temperature (°C),OPC LED temperature (°C),internal box temperature (°C),relative humidity of the measurement (%),span deviation,mass concentration of particles derived from Lorenz-Mie calculation of OPC scattering (μg/m³),mass concentration of particles derived from Lorenz-Mie calculation of OPC scattering (μg/m³),mass concentration of particles derived from Lorenz-Mie calculation of OPC scattering (μg/m³)
DateTimeUTC,F1_M11,P_M11,Q1_M11,Q2_M11,T1_M11,T2_M11,T3_M11,T4_M11,T5_M11,U1_M11,ZSPAN_M11,X0_M11,X2_M11,X1_M11
2023-09-07 05:00:00,SystemResetWarning,0831.5,5.02,000.00,028.1,024.7,000.0,036.5,029.4,21.0,0002.1,0014.67,0006.07,0004.94
2023-09-07 05:01:00,SystemResetWarning,0831.5,4.99,000.00,028.0,025.0,000.0,036.5,029.3,21.0,0002.0,0014.03,0006.05,0004.95
2023-09-07 05:02:00,SystemResetWarning,0831.5,5.00,000.00,028.0,025.3,000.0,036.5,029.4,21.0,0001.8,0014.25,0006.04,0004.94
2023-09-07 05:03:00,SystemResetWarning,0831.5,5.00,000.00,028.0,025.7,000.0,036.5,029.5,21.0,0001.7,0014.30,0005.98,0004.93
2023-09-07 05:04:00,SystemResetWarning,0831.5,5.01,000.00,028.0,026.0,000.0,036.5,029.5,21.0,0001.9,0014.72,0005.97,0004.93
2023-09-07 05:05:00,SystemResetWarning,0831.4,5.00,000.00,028.0,026.2,000.0,036.5,029.6,20.9,0002.0,0015.07,0005.97,0004.90
2023-09-07 05:06:00,SystemResetWarning,0831.4,4.99,000.00,028.1,026.4,000.0,036.5,029.7,20.9,0001.8,0014.71,0005.96,0004.91
2023-09-07 05:07:00,SystemResetWarning,0831.4,4.99,000.00,028.1,026.6,000.0,036.5,029.7,20.8,0001.8,0015.12,0005.96,0004.91
2023-09-07 05:08:00,SystemResetWarning,0831.4,5.01,000.00,028.1,026.8,000.0,036.5,029.8,20.8,0001.8,0015.14,0005.97,0004.90
2023-09-07 05:09:00,SystemResetWarning,0831.4,5.02,000.00,028.2,026.9,000.0,036.5,029.8,20.7,0001.8,0014.73,0005.98,0004.90
2023-09-07 05:10:00,SystemResetWarning,0831.4,5.00,000.00,028.2,027.0,000.0,036.5,029.8,20.5,0001.9,0014.83,0006.02,0004.90
2023-09-07 05:11:00,SystemResetWarning,0831.4,5.00,000.00,028.2,027.1,000.0,036.6,029.9,20.4,0002.1,0015.03,0005.99,0004.89
2023-09-07 05:12:00,SystemResetWarning,0831.4,5.00,000.00,028.3,027.2,000.0,036.6,029.9,20.3,0002.0,0014.86,0005.96,0004.87
2023-09-07 05:13:00,SystemResetWarning,0831.3,5.00,000.00,028.3,027.3,000.0,036.6,030.0,20.2,0002.1,0014.72,0005.94,0004.86
2023-09-07 05:14:00,SystemResetWarning,0831.4,5.00,000.00,028.3,027.3,000.0,036.6,030.0,20.4,0002.2,0015.13,0005.98,0004.85
2023-09-07 05:15:00,SystemResetWarning,0831.4,4.99,000.00,028.4,026.8,000.0,036.6,029.9,20.5,0002.0,0014.61,0005.97,0004.84
2023-09-07 05:16:00,SystemResetWarning,0831.3,5.01,000.00,028.2,025.2,000.0,036.6,029.4,20.6,0001.9,0014.32,0005.99,0004.84
2023-09-07 05:17:00,SystemResetWarning,0831.3,5.02,000.00,028.2,024.7,000.0,036.5,029.4,20.4,0001.8,0014.11,0006.01,0004.85
2023-09-07 05:18:00,SystemResetWarning,0831.3,4.99,000.00,028.1,024.8,000.0,036.5,029.3,20.5,0001.8,0013.28,0006.02,0004.84
2023-09-07 05:19:00,SystemResetWarning,0831.3,4.99,000.00,028.0,025.1,000.0,036.5,029.3,20.6,0001.6,0012.95,0006.02,0004.83
2023-09-07 05:20:00,SystemResetWarning,0831.3,5.00,000.00,028.0,025.4,000.0,036.5,029.4,20.6,0001.4,0012.80,0005.97,0004.82
2023-09-07 05:21:00,SystemResetWarning,0831.4,5.00,000.00,028.0,025.7,000.0,036.5,029.5,20.5,0001.3,0013.06,0005.91,0004.80
2023-09-07 05:22:00,SystemResetWarning,0831.4,5.01,000.00,028.0,026.0,000.0,036.5,029.6,20.3,0001.1,0013.15,0005.91,0004.80
2023-09-07 05:23:00,SystemResetWarning,0831.4,5.00,000.00,028.0,026.3,000.0,036.5,029.6,20.3,0001.1,0012.78,0005.93,0004.80
2023-09-07 05:24:00,SystemResetWarning,0831.4,5.00,000.00,028.1,026.5,000.0,036.5,029.7,20.2,0001.3,0013.78,0005.97,0004.79
2023-09-07 05:25:00,SystemResetWarning,0831.3,5.00,000.00,028.1,026.7,000.0,036.5,029.7,20.3,0001.1,0013.88,0005.96,0004.79
2023-09-07 05:26:00,SystemResetWarning,0831.3,5.00,000.00,028.1,026.8,000.0,036.5,029.8,20.3,0000.9,0014.24,0005.92,0004.77
2023-09-07 05:27:00,SystemResetWarning,0831.4,5.00,000.00,028.2,026.9,000.0,036.5,029.8,20.3,0001.1,0014.32,0005.86,0004.76
2023-09-07 05:28:00,SystemResetWarning,0831.3,5.00,000.00,028.2,027.0,000.0,036.6,029.9,20.3,0001.3,0015.04,0005.81,0004.74
2023-09-07 05:29:00,SystemResetWarning,0831.4,5.00,000.00,028.2,027.1,000.0,036.6,029.9,20.3,0001.7,0015.13,0005.77,0004.72
2023-09-07 05:30:00,SystemResetWarning,0831.3,5.00,000.00,028.3,027.2,000.0,036.6,029.9,20.5,0002.0,0015.83,0005.76,0004.70
2023-09-07 05:31:00,SystemResetWarning,0831.3,5.00,000.00,028.3,027.3,000.0,036.6,030.0,20.3,0002.2,0016.61,0005.77,0004.69
2023-09-07 05:32:00,SystemResetWarning,0831.3,5.01,000.00,028.3,027.3,000.0,036.6,030.0,20.1,0002.1,0017.06,0005.77,0004.69
2023-09-07 05:33:00,SystemResetWarning,0831.4,5.00,000.00,028.4,027.4,000.0,036.7,030.0,20.1,0001.6,0016.42,0005.78,0004.69
2023-09-07 05:34:00,SystemResetWarning,0831.3,4.98,000.00,028.4,026.2,000.0,036.6,029.8,20.1,0001.6,0016.38,0005.75,0004.68
2023-09-07 05:35:00,SystemResetWarning,0831.3,5.01,000.00,028.3,024.7,000.0,036.6,029.5,20.3,0001.4,0015.45,0005.70,0004.68
2023-09-07 05:36:00,SystemResetWarning,0831.3,5.01,000.00,028.2,024.5,000.0,036.5,029.3,20.3,0001.8,0015.24,0005.66,0004.68
2023-09-07 05:37:00,SystemResetWarning,0831.3,5.01,000.00,028.0,024.8,000.0,036.5,029.3,20.5,0002.3,0014.84,0005.67,0004.67
2023-09-07 05:38:00,SystemResetWarning,0831.3,5.00,000.00,028.0,025.1,000.0,036.5,029.3,20.6,0002.3,0015.00,0005.64,0004.65
2023-09-07 05:39:00,SystemResetWarning,0831.3,5.00,000.00,028.0,025.5,000.0,036.5,029.4,20.6,0002.0,0014.69,0005.59,0004.66
2023-09-07 05:40:00,SystemResetWarning,0831.3,5.00,000.00,028.0,025.8,000.0,036.5,029.5,20.6,0002.0,0014.92,0005.59,0004.66
2023-09-07 05:41:00,SystemResetWarning,0831.3,4.99,000.00,028.0,026.1,000.0,036.5,029.6,20.4,0001.8,0014.77,0005.58,0004.67
2023-09-07 05:42:00,SystemResetWarning,0831.3,5.00,000.00,028.1,026.3,000.0,036.5,029.6,20.3,0001.7,0013.90,0005.55,0004.66
2023-09-07 05:43:00,SystemResetWarning,0831.4,4.99,000.00,028.1,026.5,000.0,036.5,029.7,20.3,0001.5,0012.93,0005.52,0004.66
2023-09-07 05:44:00,SystemResetWarning,0831.4,4.99,000.00,028.1,026.7,000.0,036.5,029.7,20.3,0002.1,0013.01,0005.50,0004.65
2023-09-07 05:45:00,SystemResetWarning,0831.3,5.00,000.00,028.1,026.8,000.0,036.5,029.8,20.4,0002.1,0013.60,0005.48,0004.64
2023-09-07 05:46:00,SystemResetWarning,0831.3,5.00,000.00,028.2,026.9,000.0,036.6,029.8,20.4,0002.1,0013.73,0005.46,0004.64
2023-09-07 05:47:00,SystemResetWarning,0831.4,5.01,000.00,028.2,027.0,000.0,036.6,029.8,20.4,0001.8,0013.37,0005.48,0004.64
2023-09-07 05:48:00,SystemResetWarning,0831.3,5.00,000.00,028.2,027.1,000.0,036.6,029.9,20.2,0001.7,0013.34,0005.47,0004.64
2023-09-07 05:49:00,SystemResetWarning,0831.4,4.99,000.00,028.3,027.2,000.0,036.6,029.9,20.1,0001.6,0013.04,0005.50,0004.64
2023-09-07 05:50:00,SystemResetWarning,0831.3,4.99,000.00,028.3,027.2,000.0,036.6,030.0,20.0,0001.5,0012.62,0005.52,0004.63
2023-09-07 05:51:00,SystemResetWarning,0831.4,5.00,000.00,028.3,027.3,000.0,036.7,030.0,20.0,0001.5,0013.08,0005.50,0004.61
2023-09-07 05:52:00,SystemResetWarning,0831.4,4.99,000.00,028.4,027.3,000.0,036.7,030.1,19.9,0001.3,0012.70,0005.52,0004.62
2023-09-07 05:53:00,SystemResetWarning,0831.4,5.00,000.00,028.4,027.4,000.0,036.7,030.1,19.7,0001.0,0012.75,0005.53,0004.62
2023-09-07 05:54:00,SystemResetWarning,0831.3,5.00,000.00,028.4,026.7,000.0,036.7,029.9,19.8,0001.4,0012.82,0005.53,0004.63
2023-09-07 05:55:00,SystemResetWarning,0831.3,5.00,000.00,028.3,025.0,000.0,036.6,029.5,19.8,0000.9,0012.78,0005.55,0004.64
2023-09-07 05:56:00,SystemResetWarning,0831.3,5.02,000.00,028.2,024.6,000.0,036.6,029.4,19.8,0000.6,0012.40,0005.59,0004.63
2023-09-07 05:57:00,SystemResetWarning,0831.3,5.00,000.00,028.1,024.7,000.0,036.6,029.3,20.0,0000.8,0012.03,0005.57,0004.62
2023-09-07 05:58:00,SystemResetWarning,0831.3,4.99,000.00,028.1,025.0,000.0,036.5,029.3,20.0,0000.7,0011.74,0005.53,0004.60
2023-09-07 05:59:00,SystemResetWarning,0831.3,5.00,000.00,028.0,025.4,000.0,036.5,029.4,20.0,0000.7,0011.76,0005.53,0004.59
